INTELSAT 28 (IS-28)

Last updated on Sun Jun 21 2026 00:03:05 GMT+0000 (Coordinated Universal Time)

1 37392U 11016A 26171.38574377 -.00000230 00000+0 00000+0 0 9998 2 37392 1.8156 82.5854 0003722 7.6584 285.4997 1.00271258 53315
UTC large
Height (km)
Speed (km/s)
/
Latitude / Longitude
Inclination (degrees)
Orbital Period (minutes)
Azimuth
Elevation
Range (km)
Doppler Factor

Next 0 passes for location: London (51.5072 / 0.1276)

No passes found over London.
INTELSAT 28 (IS-28)